Location: Observatory
(52.1446°N, 0.4624°W)
Time: 00:26:19
(UTC+00:00)

ISS - Pass Details

Date: 06 December 2021
Orbit: 413 x 422 km, 51.6° (Epoch: 28 January)

Event Time Altitude Azimuth Distance (km) Brightness Sun altitude
Rises 16:47:42 0° 282° (WNW) 2,390 1.0 -8.3°
Reaches altitude 10° 16:49:52 10° 276° (W) 1,520 0.1 -8.6°
Maximum altitude 16:53:07 43° 203° (SSW) 610 -2.5 -9.0°
Drops below altitude 10° 16:56:21 10° 131° (SE) 1,508 -1.2 -9.5°
Enters shadow 16:58:44 -1° 124° (SE) 2,466 -0.2 -9.8°
